DW6513 Weather Reports


Display with metric or nautical units.
time (UTC)temp
F
wind
direction
speed
MPH
gust
MPH
rain 1hr
in
rain 24hr
in
rain mn
in
humidity
%
barometer
mb
20260904233801 93 100 3.0 7.0 0.00 0.00 0.00 37 1012.0
20260904233301 93 122 3.0 5.0 0.00 0.00 0.00 37 1012.0
20260904232801 94 100 2.0 6.0 0.00 0.00 0.00 36 1012.0
20260904232301 95 122 2.0 7.0 0.00 0.00 0.00 35 1012.0
20260904231801 95 252 3.0 7.0 0.00 0.00 0.00 34 1012.0
20260904231300 96 76 3.0 7.0 0.00 0.00 0.00 33 1012.0
20260904230801 97 108 3.0 7.0 0.00 0.00 0.00 32 1012.2
20260904230301 98 122 3.0 6.0 0.00 0.00 0.00 31 1012.2
20260904225305 99 101 3.0 8.0 0.00 0.00 0.00 30 1012.2
20260904224801 99 118 4.0 8.0 0.00 0.00 0.00 30 1012.8
20260904224301 99 184 3.0 8.0 0.00 0.00 0.00 29 1012.8
20260904223801 100 115 2.0 8.0 0.00 0.00 0.00 27 1012.8
20260904223301 102 142 2.0 5.0 0.00 0.00 0.00 26 1012.8
20260904222305 103 127 2.0 2.0 0.00 0.00 0.00 25 1012.7
20260904221801 103 164 3.0 7.0 0.00 0.00 0.00 25 1012.7
20260904221301 103 100 3.0 10.0 0.00 0.00 0.00 25 1012.7
20260904220802 103 145 2.0 7.0 0.00 0.00 0.00 25 1012.9
20260904220301 103 124 3.0 7.0 0.00 0.00 0.00 25 1012.9
20260904215802 103 100 3.0 7.0 0.00 0.00 0.00 25 1012.9
20260904215300 103 302 2.0 7.0 0.00 0.00 0.00 25 1012.9
20260904214801 102 175 2.0 7.0 0.00 0.00 0.00 27 1013.2
20260904214301 101 322 2.0 9.0 0.00 0.00 0.00 26 1013.3
20260904213801 103 117 2.0 9.0 0.00 0.00 0.00 24 1013.3
20260904213301 104 148 2.0 6.0 0.00 0.00 0.00 24 1013.3
20260904212801 104 302 2.0 5.0 0.00 0.00 0.00 26 1013.1
20260904212301 104 302 1.0 9.0 0.00 0.00 0.00 26 1013.1
20260904211801 105 139 1.0 9.0 0.00 0.00 0.00 25 1013.1
20260904211301 104 97 3.0 6.0 0.00 0.00 0.00 28 1013.1
20260904210801 102 225 4.0 9.0 0.00 0.00 0.00 26 1013.3
20260904210301 101 143 4.0 9.0 0.00 0.00 0.00 28 1013.4
20260904205301 100 283 3.0 6.0 0.00 0.00 0.00 28 1013.4
20260904204802 101 122 3.0 6.0 0.00 0.00 0.00 28 1013.7
20260904204301 101 212 3.0 12.0 0.00 0.00 0.00 28 1013.8
20260904203800 102 109 5.0 7.0 0.00 0.00 0.00 27 1013.8
20260904203301 103 124 3.0 9.0 0.00 0.00 0.00 28 1013.8
20260904202801 102 269 4.0 9.0 0.00 0.00 0.00 29 1014.1
20260904202305 102 254 3.0 9.0 0.00 0.00 0.00 29 1014.2
20260904201801 102 95 2.0 9.0 0.00 0.00 0.00 29 1014.2
20260904201301 102 327 2.0 10.0 0.00 0.00 0.00 32 1014.2
20260904200802 103 122 2.0 3.0 0.00 0.00 0.00 30 1014.3
20260904200301 102 148 3.0 7.0 0.00 0.00 0.00 32 1014.3
20260904195801 101 288 5.0 7.0 0.00 0.00 0.00 33 1014.3
20260904195301 99 259 5.0 12.0 0.00 0.00 0.00 33 1014.3
20260904194801 99 131 3.0 12.0 0.00 0.00 0.00 33 1014.5
20260904193801 99 111 5.0 7.0 0.00 0.00 0.00 33 1014.7
20260904193301 99 102 5.0 7.0 0.00 0.00 0.00 33 1014.7
20260904192801 101 133 2.0 7.0 0.00 0.00 0.00 32 1014.9
20260904191801 102 293 2.0 5.0 0.00 0.00 0.00 35 1014.9
20260904191301 101 260 2.0 6.0 0.00 0.00 0.00 34 1014.9
20260904190801 102 295 2.0 3.0 0.00 0.00 0.00 34 1014.8
20260904190301 101 119 2.0 5.0 0.00 0.00 0.00 34 1014.8
20260904185801 100 253 3.0 5.0 0.00 0.00 0.00 35 1014.8
20260904185301 100 302 3.0 12.0 0.00 0.00 0.00 35 1014.8
20260904184801 99 302 2.0 12.0 0.00 0.00 0.00 36 1015.0
20260904184301 98 168 2.0 6.0 0.00 0.00 0.00 38 1015.0
20260904183801 96 159 3.0 6.0 0.00 0.00 0.00 40 1015.0
20260904183301 96 144 3.0 12.0 0.00 0.00 0.00 38 1015.0
20260904182801 95 95 2.0 5.0 0.00 0.00 0.00 41 1015.1
20260904182301 92 97 2.0 6.0 0.00 0.00 0.00 41 1015.1
20260904181801 94 235 2.0 7.0 0.00 0.00 0.00 42 1015.1
20260904181301 94 257 3.0 9.0 0.00 0.00 0.00 42 1015.1
20260904180801 94 246 3.0 9.0 0.00 0.00 0.00 43 1015.5
20260904180301 93 97 5.0 9.0 0.00 0.00 0.00 42 1015.6
20260904175801 93 307 3.0 7.0 0.00 0.00 0.00 44 1015.6
20260904175301 92 214 5.0 12.0 0.00 0.00 0.00 45 1015.6
20260904174800 92 266 5.0 13.0 0.00 0.00 0.00 44 1015.2
20260904174301 92 263 3.0 14.0 0.00 0.00 0.00 44 1015.1
20260904173801 91 302 3.0 14.0 0.00 0.00 0.00 45 1015.1
20260904173301 91 302 5.0 9.0 0.00 0.00 0.00 46 1015.1
20260904172801 91 218 6.0 16.0 0.00 0.00 0.00 46 1015.6
20260904172305 91 346 5.0 16.0 0.00 0.00 0.00 46 1015.8
20260904171801 91 258 5.0 6.0 0.00 0.00 0.00 47 1015.8
20260904171301 90 237 6.0 9.0 0.00 0.00 0.00 48 1015.8
20260904170801 90 110 6.0 14.0 0.00 0.00 0.00 48 1015.9
20260904170301 90 324 6.0 9.0 0.00 0.00 0.00 48 1015.9
20260904165804 89 297 5.0 13.0 0.00 0.00 0.00 48 1015.9
20260904165305 89 97 5.0 13.0 0.00 0.00 0.00 50 1015.9
20260904164801 89 132 3.0 8.0 0.00 0.00 0.00 50 1016.1
20260904163301 88 301 4.0 12.0 0.00 0.00 0.00 52 1016.1
20260904162301 87 122 6.0 9.0 0.00 0.00 0.00 53 1016.1
20260904161801 87 331 6.0 9.0 0.00 0.00 0.00 54 1016.1
20260904161301 87 166 4.0 8.0 0.00 0.00 0.00 54 1016.1
20260904160801 87 127 3.0 5.0 0.00 0.00 0.00 55 1015.9
20260904160301 87 120 3.0 10.0 0.00 0.00 0.00 56 1015.8
20260904155801 86 133 5.0 10.0 0.00 0.00 0.00 56 1015.8
20260904154301 86 121 6.0 14.0 0.00 0.00 0.00 57 1015.9
20260904153301 85 164 7.0 16.0 0.00 0.00 0.00 57 1015.9
20260904152801 85 86 6.0 9.0 0.00 0.00 0.00 57 1015.9
20260904152301 85 209 5.0 9.0 0.00 0.00 0.00 57 1015.9
20260904151801 85 83 5.0 6.0 0.00 0.00 0.00 58 1015.9
20260904151302 85 82 5.0 6.0 0.00 0.00 0.00 58 1015.9
20260904150801 85 89 7.0 9.0 0.00 0.00 0.00 58 1015.7
20260904150301 84 80 6.0 14.0 0.00 0.00 0.00 58 1015.6
20260904145801 84 145 5.0 13.0 0.00 0.00 0.00 59 1015.6
20260904145305 84 124 5.0 9.0 0.00 0.00 0.00 59 1015.6
20260904144801 84 82 6.0 14.0 0.00 0.00 0.00 60 1015.4
20260904143801 84 100 6.0 16.0 0.00 0.00 0.00 60 1015.4
20260904143301 83 254 5.0 9.0 0.00 0.00 0.00 60 1015.4
20260904142801 83 163 5.0 10.0 0.00 0.00 0.00 60 1014.9
20260904142301 83 79 5.0 10.0 0.00 0.00 0.00 61 1014.6
20260904141801 82 333 5.0 13.0 0.00 0.00 0.00 63 1014.6
20260904141301 82 123 5.0 13.0 0.00 0.00 0.00 63 1014.6
20260904140301 81 164 2.0 10.0 0.00 0.00 0.00 64 1015.6
20260904135801 81 114 2.0 10.0 0.00 0.00 0.00 65 1015.6
20260904135301 81 257 2.0 10.0 0.00 0.00 0.00 65 1015.6
20260904134301 80 74 2.0 3.0 0.00 0.00 0.00 67 1015.4
20260904133801 80 330 2.0 8.0 0.00 0.00 0.00 67 1015.4
20260904133301 79 99 3.0 8.0 0.00 0.00 0.00 68 1015.4
20260904132301 78 122 1.0 5.0 0.00 0.00 0.00 70 1015.5
20260904131801 78 100 1.0 5.0 0.00 0.00 0.00 71 1015.5
20260904131301 77 145 1.0 3.0 0.00 0.00 0.00 72 1015.5
20260904130302 77 100 2.0 3.0 0.00 0.00 0.00 72 1015.6
20260904125801 76 144 1.0 3.0 0.00 0.00 0.00 73 1015.6
20260904125305 76 122 1.0 0.0 0.00 0.00 0.00 73 1015.6
20260904124801 76 122 0.0 3.0 0.00 0.00 0.00 74 1015.4
20260904124302 76 122 1.0 0.0 0.00 0.00 0.00 74 1015.3
20260904123801 76 108 1.0 3.0 0.00 0.00 0.00 74 1015.3
20260904123301 76 100 1.0 3.0 0.00 0.00 0.00 75 1015.3
20260904122801 75 140 0.0 0.0 0.00 0.00 0.00 76 1015.3
20260904122302 74 122 0.0 0.0 0.00 0.00 0.00 76 1015.3
20260904121801 74 122 0.0 0.0 0.00 0.00 0.00 75 1015.3
20260904121302 74 122 1.0 0.0 0.00 0.00 0.00 75 1015.3
20260904120801 74 100 1.0 3.0 0.00 0.00 0.00 76 1015.3
20260904115801 74 122 0.0 0.0 0.00 0.00 0.00 75 1015.3
20260904115301 74 100 0.0 0.0 0.00 0.00 0.00 74 1015.3
20260904114802 74 123 0.0 0.0 0.00 0.00 0.00 74 1015.2
20260904113802 75 100 0.0 0.0 0.00 0.00 0.00 74 1015.1
20260904113302 74 122 0.0 0.0 0.00 0.00 0.00 74 1015.1
20260904112801 74 284 0.0 0.0 0.00 0.00 0.00 73 1015.0
20260904112305 75 235 0.0 0.0 0.00 0.00 0.00 73 1014.7
20260904111801 75 145 0.0 0.0 0.00 0.00 0.00 73 1014.7
20260904111302 75 122 0.0 0.0 0.00 0.00 0.00 72 1014.7
20260904110801 75 145 0.0 0.0 0.00 0.00 0.00 72 1014.6
20260904110301 75 100 0.0 0.0 0.00 0.00 0.00 72 1014.6
20260904105802 75 145 0.0 0.0 0.00 0.00 0.00 71 1014.6
20260904105305 76 102 0.0 0.0 0.00 0.00 0.00 71 1014.6
20260904104801 76 135 1.0 2.0 0.00 0.00 0.00 71 1014.6
20260904104301 76 122 1.0 5.0 0.00 0.00 0.00 71 1014.6
20260904102801 76 93 0.0 2.0 0.00 0.00 0.00 71 1014.4
20260904102301 76 100 0.0 0.0 0.00 0.00 0.00 71 1014.3
20260904101801 76 100 0.0 0.0 0.00 0.00 0.00 71 1014.3
20260904100802 76 132 0.0 0.0 0.00 0.00 0.00 71 1014.3
20260904100301 76 100 1.0 0.0 0.00 0.00 0.00 71 1014.3
20260904095802 76 129 0.0 3.0 0.00 0.00 0.00 71 1014.3
20260904095305 76 100 0.0 0.0 0.00 0.00 0.00 71 1014.3
20260904094801 76 161 0.0 0.0 0.00 0.00 0.00 70 1014.2
20260904094302 76 145 0.0 0.0 0.00 0.00 0.00 71 1014.2
20260904093801 76 86 0.0 0.0 0.00 0.00 0.00 71 1014.2
20260904093301 76 122 0.0 0.0 0.00 0.00 0.00 70 1014.2
20260904092801 76 114 0.0 0.0 0.00 0.00 0.00 70 1014.0
20260904092301 76 122 0.0 0.0 0.00 0.00 0.00 70 1013.9
20260904091802 76 100 0.0 0.0 0.00 0.00 0.00 70 1013.9
20260904091302 77 168 0.0 0.0 0.00 0.00 0.00 70 1013.9
20260904090802 77 150 0.0 0.0 0.00 0.00 0.00 70 1013.8
20260904090302 77 122 0.0 0.0 0.00 0.00 0.00 69 1013.7
20260904085301 77 100 0.0 0.0 0.00 0.00 0.00 69 1013.7
20260904084801 77 107 0.0 2.0 0.00 0.00 0.00 69 1013.8
20260904084301 77 122 1.0 2.0 0.00 0.00 0.00 69 1013.8
20260904083801 77 245 1.0 3.0 0.00 0.00 0.00 69 1013.8
20260904083301 78 122 1.0 3.0 0.00 0.00 0.00 68 1013.8
20260904082802 78 132 0.0 3.0 0.00 0.00 0.00 68 1013.9
20260904082305 78 100 0.0 0.0 0.00 0.00 0.00 68 1014.0
20260904081302 78 168 0.0 3.0 0.00 0.00 0.00 68 1014.0
20260904080801 78 130 0.0 2.0 0.00 0.00 0.00 67 1013.8
20260904080301 78 78 1.0 0.0 0.00 0.00 0.00 67 1013.7
20260904075802 78 123 1.0 2.0 0.00 0.00 0.00 67 1013.7
20260904075301 78 100 1.0 3.0 0.00 0.00 0.00 67 1013.7
20260904074801 78 121 1.0 3.0 0.00 0.00 0.00 66 1013.8
20260904073802 79 184 1.0 2.0 0.00 0.00 0.00 65 1013.9
20260904073302 79 145 1.0 2.0 0.00 0.00 0.00 65 1013.9
20260904072802 79 131 0.0 2.0 0.00 0.00 0.00 65 1013.7
20260904072301 79 122 0.0 2.0 0.00 0.00 0.00 65 1013.6
20260904071801 79 122 0.0 3.0 0.00 0.00 0.00 65 1013.6
20260904071301 79 100 0.0 3.0 0.00 0.00 0.00 65 1013.6
20260904070801 79 100 0.0 0.0 0.00 0.00 0.00 65 1013.7
20260904070302 79 325 1.0 0.0 0.00 0.00 0.00 64 1013.8
20260904065801 79 142 1.0 2.0 0.00 0.00 0.00 64 1013.8
20260904065301 79 100 1.0 2.0 0.00 0.00 0.00 64 1013.8
20260904064801 80 14 1.0 5.0 0.00 0.00 0.00 64 1013.8
20260904064301 80 100 0.0 3.0 0.00 0.00 0.00 64 1013.8
20260904063801 80 128 1.0 3.0 0.00 0.00 0.00 64 1013.8
20260904063302 80 145 1.0 3.0 0.00 0.00 0.00 64 1013.8
20260904062801 80 114 0.0 2.0 0.00 0.00 0.00 64 1013.7
20260904061301 80 145 1.0 2.0 0.00 0.00 0.00 63 1013.7
20260904060802 80 78 1.0 5.0 0.00 0.00 0.00 63 1013.8
20260904060301 80 258 0.0 3.0 0.00 0.00 0.00 63 1013.8
20260904055801 80 130 0.0 3.0 0.00 0.00 0.00 63 1013.8
20260904055301 80 78 1.0 0.0 0.00 0.00 0.00 62 1013.8
20260904054801 80 317 1.0 2.0 0.00 0.00 0.00 62 1013.9
20260904054302 80 145 0.0 2.0 0.00 0.00 0.00 62 1014.0
20260904053802 81 179 1.0 0.0 0.00 0.00 0.00 61 1014.0
20260904053302 81 78 2.0 3.0 0.00 0.00 0.00 61 1014.0
20260904052301 81 168 2.0 3.0 0.00 0.00 0.00 60 1014.0
20260904051802 81 135 1.0 3.0 0.00 0.00 0.00 60 1014.0
20260904051302 81 100 1.0 0.0 0.00 0.00 0.00 60 1014.0
20260904050817 82 122 1.0 5.0 0.00 0.00 0.00 60 1013.8
20260904050302 82 100 1.0 5.0 0.00 0.00 0.00 60 1013.7
20260904045801 82 115 1.0 3.0 0.00 0.00 0.00 60 1013.7
20260904045306 82 100 2.0 2.0 0.00 0.00 0.00 60 1013.7
20260904044802 82 100 2.0 3.0 0.00 0.00 0.00 59 1013.8
20260904044301 82 122 1.0 3.0 0.00 0.00 0.00 59 1013.9
20260904043801 82 106 1.0 3.0 0.00 0.00 0.00 59 1013.9
20260904043302 82 122 1.0 3.0 0.00 0.00 0.00 58 1013.9
20260904042802 82 110 1.0 3.0 0.00 0.00 0.00 58 1013.8
20260904042305 83 122 0.0 2.0 0.00 0.00 0.00 58 1013.7
20260904041301 83 100 0.0 0.0 0.00 0.00 0.00 58 1013.7
20260904040801 83 100 0.0 2.0 0.00 0.00 0.00 58 1013.9
20260904040301 83 100 0.0 0.0 0.00 0.00 0.00 57 1014.0
20260904035801 83 87 0.0 3.0 0.00 0.00 0.00 57 1014.0
20260904035301 83 100 0.0 0.0 0.00 0.00 0.00 57 1014.0
20260904034802 83 160 0.0 2.0 0.00 0.00 0.00 57 1013.9
20260904034302 83 145 0.0 2.0 0.00 0.00 0.00 57 1013.8
20260904033802 84 100 0.0 3.0 0.00 0.00 0.00 57 1013.8
20260904033302 84 122 0.0 0.0 0.00 0.00 0.00 56 1013.8
20260904032301 84 145 0.0 2.0 0.00 0.00 0.00 57 1013.6
20260904031801 84 280 0.0 2.0 0.00 0.00 0.00 56 1013.6
20260904031301 84 145 0.0 2.0 0.00 0.00 0.00 56 1013.6
20260904030801 84 190 0.0 2.0 0.00 0.00 0.00 56 1013.7
20260904030302 84 235 0.0 2.0 0.00 0.00 0.00 56 1013.8
20260904025802 84 129 0.0 0.0 0.00 0.00 0.00 56 1013.8
20260904025305 84 190 0.0 0.0 0.00 0.00 0.00 56 1013.8
20260904024802 84 220 0.0 0.0 0.00 0.00 0.00 56 1013.5
20260904023801 85 66 0.0 3.0 0.00 0.00 0.00 55 1013.4
20260904023301 85 168 0.0 3.0 0.00 0.00 0.00 55 1013.4
20260904022801 85 84 0.0 3.0 0.00 0.00 0.00 55 1013.5
20260904022305 85 212 0.0 0.0 0.00 0.00 0.00 55 1013.5
20260904021802 85 162 1.0 2.0 0.00 0.00 0.00 55 1013.5
20260904021302 85 145 1.0 5.0 0.00 0.00 0.00 54 1013.5
20260904020802 85 325 0.0 5.0 0.00 0.00 0.00 54 1013.5
20260904015802 86 123 1.0 5.0 0.00 0.00 0.00 52 1013.5
20260904015301 86 145 0.0 5.0 0.00 0.00 0.00 51 1013.5
20260904014802 86 324 0.0 0.0 0.00 0.00 0.00 50 1013.2
20260904014302 87 212 1.0 2.0 0.00 0.00 0.00 50 1013.1
20260904013801 87 112 1.0 2.0 0.00 0.00 0.00 49 1013.1
20260904013302 87 100 0.0 2.0 0.00 0.00 0.00 49 1013.1
20260904012802 87 190 0.0 3.0 0.00 0.00 0.00 49 1013.0
20260904012305 87 190 0.0 2.0 0.00 0.00 0.00 49 1012.9
20260904011302 88 145 0.0 2.0 0.00 0.00 0.00 48 1012.9
20260904010801 88 136 0.0 2.0 0.00 0.00 0.00 48 1012.7
20260904010301 88 78 0.0 2.0 0.00 0.00 0.00 48 1012.6
20260904005802 88 180 0.0 0.0 0.00 0.00 0.00 47 1012.6
20260904005302 88 168 0.0 0.0 0.00 0.00 0.00 47 1012.6
20260904003801 89 156 1.0 2.0 0.00 0.00 0.00 46 1012.7
20260904003301 89 78 1.0 2.0 0.00 0.00 0.00 45 1012.7
20260904002801 90 116 1.0 6.0 0.00 0.00 0.00 44 1012.5
20260904001802 90 180 1.0 5.0 0.00 0.00 0.00 44 1012.4
20260904001302 91 100 0.0 2.0 0.00 0.00 0.00 43 1012.4
20260904000802 91 180 0.0 2.0 0.00 0.00 0.00 43 1012.4
20260904000303 91 145 1.0 3.0 0.00 0.00 0.00 41 1012.4
20260903235801 92 158 1.0 3.0 0.00 0.00 0.00 41 1012.4
20260903235305 92 145 1.0 0.0 0.00 0.00 0.00 40 1012.4
20260903234801 92 85 1.0 2.0 0.00 0.00 0.00 40 1012.5